Regional Weather Roundup
Issued by NWS

Home | Current Version | Previous Version | Graphics & Text | Print | Product List | Glossary Off
Versions: 1 2 3 4 5 6 7 8 9 10 11 12 13 14 15 16 17 18 19 20 21 22 23 24 25 26 27 28 29 30 31 32 33 34 35 36 37 38 39 40 41 42 43 44 45 46 47 48 49 50

000
ASUS43 KMKX 020820
RWRWI

WISCONSIN REGIONAL WEATHER ROUNDUP
NATIONAL WEATHER SERVICE MILWAUKEE/SULLIVAN WI
300 AM CDT THU APR 02 2015

NOTE: "FAIR" INDICATES FEW OR NO CLOUDS BELOW 12,000 FEET WITH NO
SIGNIFICANT WEATHER AND/OR OBSTRUCTIONS TO VISIBILITY.

WIZ001-002-006>008-014>016-023>028-020900-
NORTHWEST WISCONSIN

CITY           SKY/WX    TMP DP  RH WIND       PRES   REMARKS
SUPERIOR ARPT  CLOUDY    50  42  74 W10G18    29.54S
ASHLAND        CLOUDY    53  42  66 W10G17    29.54R
HAYWARD        CLOUDY    54  44  69 VRB5      29.57R
SIREN          CLOUDY    51  42  71 W8        29.60R
CUMBERLAND     CLOUDY    50  43  76 W7        29.60S
RICE LAKE      CLOUDY    53  46  75 W7        29.62R
CHETEK         CLOUDY    55  48  78 W8        29.60S
LADYSMITH      CLOUDY    54  53  95 SW10      29.59F
EAU CLAIRE     CLOUDY    55  53  93 W12       29.59F
MENOMONIE      CLOUDY    56  52  86 W12       29.62S
NEW RICHMOND   CLOUDY    50  42  74 W9        29.64R
OSCEOLA        CLOUDY    52  41  66 W12       29.66R
$$

WIZ003>005-009-010-017-018-020900-
NORTH CENTRAL WISCONSIN

CITY           SKY/WX    TMP DP  RH WIND       PRES   REMARKS
MANITOWISH WTR CLOUDY    52  51  95 SW10      29.55R
ARBOR VITAE    CLOUDY    52  48  88 SW6       29.55R
WOODRUFF       CLOUDY    52  48  88 SW6       29.55R
RHINELANDER    CLOUDY    52  48  86 SW15G26   29.56F
EAGLE RIVER    CLOUDY    51  46  82 SW10      29.54R
LAND O LAKES   CLOUDY    52  46  78 SW7       29.54R
PHILLIPS       CLOUDY    51  50  97 SW7       29.56S
TOMAHAWK       CLOUDY    51  49  92 CALM      29.56F
MEDFORD        CLOUDY    52  50  93 SW8G16    29.57F
MERRILL        CLOUDY    53  49  88 SW9       29.58F
$$

WIZ029-030-035-036-043>047-020900-
CENTRAL WISCONSIN

CITY           SKY/WX    TMP DP  RH WIND       PRES   REMARKS
WAUSAU         CLOUDY    56  46  69 SW9       29.59F
MOSINEE        CLOUDY    54  45  71 SW6       29.62S
MARSHFIELD     LGT RAIN  54  49  83 S6        29.60F
STEVENS POINT  CLOUDY    58  36  43 SW10G16   29.61F
WAUPACA        CLOUDY    62  37  39 S12       29.63F
WAUTOMA        CLOUDY    62  38  41 S14       29.65F
WISC RAPIDS    CLOUDY    61  35  37 S9        29.62F
CAMP DOUGLAS   CLOUDY    62  41  45 S12       29.61F
$$

WIZ011>013-019>022-031-037>040-048>050-020900-
NORTHEAST WISCONSIN

CITY           SKY/WX    TMP DP  RH WIND       PRES   REMARKS
ANTIGO         CLOUDY    52  41  65 SW12      29.59F
SHAWANO        CLOUDY    59  39  46 S7        29.61F
OCONTO         CLOUDY    58  40  51 SW13G24   29.60F
STURGEON BAY   CLOUDY    45  37  76 S9        29.65S
GREEN BAY      CLOUDY    55  41  59 SW15G25   29.64S
MANITOWOC      MOCLDY    51  40  65 S10       29.68S
APPLETON       CLOUDY    54  37  54 SW16      29.66F
CLINTONVILLE   CLOUDY    59  37  44 S12       29.62F
OSHKOSH        MOCLDY    56  40  55 SW16G25   29.67R
$$

WIZ032>034-041-042-053>061-020900-
SOUTHWEST WISCONSIN

CITY           SKY/WX    TMP DP  RH WIND       PRES   REMARKS
LA CROSSE      CLOUDY    62  48  60 SE7       29.61F
SPARTA         CLOUDY    62  40  43 S6        29.62F
VIROQUA        CLOUDY    56  40  53 S7        29.64F
BOSCOBEL       CLOUDY    62  42  47 SW10      29.65F
PRAIRIE DU CHI CLOUDY    60  41  49 SE6       29.64F
PLATTEVILLE    CLOUDY    55  42  60 E9        29.68F
$$

WIZ056-057-062-063-064-067-068-020900-
SOUTH CENTRAL WISCONSIN

CITY           SKY/WX    TMP DP  RH WIND       PRES   REMARKS
REEDSBURG      CLOUDY    58  40  51 S12G17    29.66F
BARABOO/DELLS  CLOUDY    58  37  46 S8        29.67F
LONE ROCK      CLOUDY    59  39  47 S6        29.67F
MINERAL POINT  MOCLDY    55  37  50 SE5       29.68F
MADISON        MOCLDY    56  39  53 SW3       29.73R
MIDDLETON      MOCLDY    58  37  45 SW7       29.72F
WATERTOWN      PTCLDY    54  39  58 SW5       29.74R
MONROE         PTCLDY    54  41  62 W7        29.73R
JANESVILLE     PTCLDY    57  36  44 S13       29.71F
$$

WIZ051-052-058>065-066-070>072-020900-
SOUTHEAST WISCONSIN

CITY           SKY/WX    TMP DP  RH WIND       PRES   REMARKS
MILWAUKEE      MOCLDY    57  36  45 S12       29.74F
WAUKESHA       PTCLDY    55  36  47 S12G20    29.73F
MILWAUKEE/TIMM PTCLDY    59  32  36 S16G23    29.72F
RACINE         MOCLDY    52  35  52 S8        29.77F
BURLINGTON     PTCLDY    55  36  49 S10G18    29.74F
KENOSHA        PTCLDY    58  36  43 S14       29.75F
FOND DU LAC    MOCLDY    55  39  54 SW14G23   29.69R
SHEBOYGAN      MOCLDY    56  39  53 SW17      29.70F
WEST BEND      MOCLDY    55  34  44 SW10      29.72R
JUNEAU         MOCLDY    52  39  61 S7        29.74R
$$

LSZ147-162-020900-
LAKE SUPERIOR

STATION/POSITION TIME  TEMP    WIND        PRES    WAVE
                       AIR SEA DIR/SP/G            HT/PER
                 (UTC) (F)     (DEG/KT/KT) (MB)    (FT/S)
DEVILS ISLAND    0800   41     240/ 19/ 21  999.5R
PORT WING        0740   47     210/  7/  9 1000.7R
SAXON HARBOR     0700   60     210/  9/ 21  998.3R
$$

LMZ867-665-643>646-020900-
LAKE MICHIGAN

STATION/POSITION TIME  TEMP    WIND        PRES    WAVE
                       AIR SEA DIR/SP/G            HT/PER
                 (UTC) (F)     (DEG/KT/KT) (MB)    (FT/S)
NORTHPORT PIER   0740   45     160/  8/ 19 1003.4S
KEWAUNEE LAKESHO 0700   42     180/ 13/ 15 1003.4F
SHEBOYGAN LAKESH 0800   45     200/ 15/ 17 1006.5F
PORT WASHINGTON  0740   45     190/  9/ 11 1007.1F
MILWAUKEE LAKESH 0800          170/ 10/ 11   N/A
KENOSHA   LAKESH 0800   45     170/ 12/ 13 1007.8F
$$

TC  - TEMPERATURE IN CELSIUS
VSB - VISIBILITY IN STATUTE MILES
WCI - WIND CHILL INDEX
HX  - HEAT INDEX



USA.gov is the U.S. government's official web portal to all federal, state and local government web resources and services.